DW5129 Weather Reports


time (UTC)temp
F
wind
direction
speed
knots
gust
knots
rain 1hr
in
rain 24hr
in
rain mn
in
humidity
%
barometer
mb
20260508131504 52 80 0.0 2.6 0.00 0.00 0.00 74 1016.2
20260508131002 51 74 0.0 2.6 0.00 0.00 0.00 76 1016.2
20260508130600 51 102 0.0 2.6 0.00 0.00 0.00 76 1016.2
20260508125557 50 110 0.0 2.6 0.00 0.00 0.00 80 1016.4
20260508125055 49 114 0.0 2.6 0.00 0.00 0.00 81 1016.3
20260508124553 49 119 0.0 2.6 0.00 0.00 0.00 82 1016.3
20260508124052 48 74 0.0 2.6 0.00 0.00 0.00 83 1016.2
20260508123550 48 110 0.0 0.9 0.00 0.00 0.00 84 1016.2
20260508123049 47 140 0.0 0.0 0.00 0.00 0.00 88 1016.3
20260508122547 46 123 0.0 0.0 0.00 0.00 0.00 88 1016.1
20260508122046 46 127 0.0 0.0 0.00 0.00 0.00 89 1016.1
20260508121600 45 127 0.0 0.0 0.00 0.00 0.00 91 1016.2
20260508121043 45 141 0.0 0.0 0.00 0.00 0.00 93 1016.1
20260508120541 44 142 0.0 0.9 0.00 0.00 0.00 94 1016.1
20260508120040 43 209 0.0 0.9 0.00 0.00 0.00 95 1016.0
20260508115543 43 290 0.0 0.0 0.00 0.00 0.00 95 1016.1
20260508115036 42 290 0.0 0.0 0.00 0.00 0.00 95 1016.2
20260508114537 42 290 0.0 0.0 0.00 0.00 0.00 95 1016.1
20260508114034 41 290 0.0 0.0 0.00 0.00 0.00 95 1016.2
20260508113539 40 290 0.0 0.0 0.00 0.00 0.00 95 1016.1
20260508113033 39 290 0.0 0.0 0.00 0.00 0.00 95 1016.2
20260508112533 38 290 0.0 0.0 0.00 0.00 0.00 94 1016.1
20260508112031 38 290 0.0 0.0 0.00 0.00 0.00 94 1016.1
20260508111530 38 290 0.0 0.0 0.00 0.00 0.00 94 1016.0
20260508111030 38 290 0.0 0.0 0.00 0.00 0.00 94 1015.8
20260508110529 37 290 0.0 0.0 0.00 0.00 0.00 94 1015.8
20260508110031 37 290 0.0 0.0 0.00 0.00 0.00 94 1015.8
20260508105527 37 290 0.0 0.0 0.00 0.00 0.00 94 1015.8
20260508105028 37 290 0.0 0.0 0.00 0.00 0.00 94 1015.8
20260508104527 37 290 0.0 0.0 0.00 0.00 0.00 94 1015.9
20260508104025 37 290 0.0 0.0 0.00 0.00 0.00 94 1015.8
20260508103526 37 290 0.0 0.0 0.00 0.00 0.00 94 1015.8
20260508103025 37 290 0.0 0.0 0.00 0.00 0.00 94 1015.7
20260508102523 37 290 0.0 0.0 0.00 0.00 0.00 94 1015.6
20260508102023 37 290 0.0 0.0 0.00 0.00 0.00 94 1015.6
20260508101523 37 290 0.0 0.0 0.00 0.00 0.00 94 1015.5
20260508101025 37 290 0.0 0.0 0.00 0.00 0.00 94 1015.5
20260508100522 37 290 0.0 0.0 0.00 0.00 0.00 94 1015.4
20260508100022 37 290 0.0 0.0 0.00 0.00 0.00 94 1015.4
20260508095523 37 290 0.0 0.0 0.00 0.00 0.00 94 1015.3
20260508095020 37 290 0.0 0.0 0.00 0.00 0.00 94 1015.4
20260508094522 37 290 0.0 0.0 0.00 0.00 0.00 94 1015.3
20260508094020 37 290 0.0 0.0 0.00 0.00 0.00 94 1015.2
20260508093520 37 290 0.0 0.0 0.00 0.00 0.00 93 1015.1
20260508093023 37 290 0.0 0.0 0.00 0.00 0.00 94 1015.2
20260508092519 37 290 0.0 0.0 0.00 0.00 0.00 93 1015.3
20260508092019 37 290 0.0 0.0 0.00 0.00 0.00 94 1015.4
20260508091518 38 290 0.0 0.0 0.00 0.00 0.00 93 1015.4
20260508091018 38 290 0.0 0.0 0.00 0.00 0.00 93 1015.3
20260508090518 37 290 0.0 0.0 0.00 0.00 0.00 93 1015.2
20260508090018 38 290 0.0 0.0 0.00 0.00 0.00 93 1015.1
20260508085521 38 290 0.0 0.0 0.00 0.00 0.00 93 1015.2
20260508085015 38 290 0.0 0.0 0.00 0.00 0.00 93 1015.2
20260508084516 38 290 0.0 0.0 0.00 0.00 0.00 93 1015.2
20260508084016 38 290 0.0 0.0 0.00 0.00 0.00 93 1015.1
20260508083516 38 290 0.0 0.0 0.00 0.00 0.00 93 1015.0
20260508083041 38 290 0.0 0.0 0.00 0.00 0.00 93 1015.1
20260508082514 38 290 0.0 0.0 0.00 0.00 0.00 93 1015.1
20260508082020 38 290 0.0 0.0 0.00 0.00 0.00 93 1015.1
20260508081514 38 290 0.0 0.0 0.00 0.00 0.00 93 1015.0
20260508081014 38 290 0.0 0.0 0.00 0.00 0.00 93 1015.0
20260508080514 38 290 0.0 0.0 0.00 0.00 0.00 93 1015.0
20260508080016 38 290 0.0 0.0 0.00 0.00 0.00 93 1015.0
20260508075512 38 290 0.0 0.0 0.00 0.00 0.00 92 1015.0
20260508075011 38 290 0.0 0.0 0.00 0.00 0.00 92 1015.1
20260508074512 38 290 0.0 0.0 0.00 0.00 0.00 92 1015.0
20260508074012 38 290 0.0 0.0 0.00 0.00 0.00 92 1015.0
20260508073511 38 290 0.0 0.0 0.00 0.00 0.00 92 1014.9
20260508073011 38 290 0.0 0.0 0.00 0.00 0.00 92 1014.9
20260508072510 38 290 0.0 0.0 0.00 0.00 0.00 92 1015.0
20260508072010 38 290 0.0 0.0 0.00 0.00 0.00 92 1014.9
20260508071511 38 290 0.0 0.0 0.00 0.00 0.00 92 1014.9
20260508071009 39 290 0.0 0.0 0.00 0.00 0.00 91 1014.8
20260508070509 38 290 0.0 0.0 0.00 0.00 0.00 91 1015.0
20260508070012 39 290 0.0 0.0 0.00 0.00 0.00 91 1014.9
20260508065508 39 290 0.0 0.0 0.00 0.00 0.00 91 1015.1
20260508065008 39 290 0.0 0.0 0.00 0.00 0.00 91 1014.9
20260508064522 39 290 0.0 0.0 0.00 0.00 0.00 91 1014.9
20260508064006 39 290 0.0 0.0 0.00 0.00 0.00 91 1015.0
20260508063507 39 290 0.0 0.0 0.00 0.00 0.00 91 1015.0
20260508063006 39 290 0.0 0.0 0.00 0.00 0.00 91 1015.0
20260508062508 39 290 0.0 0.0 0.00 0.00 0.00 91 1015.0
20260508062005 39 290 0.0 0.0 0.00 0.00 0.00 91 1014.9
20260508061505 39 290 0.0 0.0 0.00 0.00 0.00 91 1014.9
20260508061005 39 290 0.0 0.0 0.00 0.00 0.00 90 1014.9
20260508060606 39 290 0.0 0.0 0.00 0.00 0.00 90 1015.0
20260508060003 39 290 0.0 0.0 0.00 0.00 0.00 90 1014.9
20260508055504 39 290 0.0 0.0 0.00 0.00 0.00 89 1014.8
20260508055002 40 290 0.0 0.0 0.00 0.00 0.00 89 1015.0
20260508054502 40 290 0.0 0.0 0.00 0.00 0.00 89 1014.9
20260508054001 40 290 0.0 0.0 0.00 0.00 0.00 89 1015.0
20260508053501 40 290 0.0 0.0 0.00 0.00 0.00 89 1015.0
20260508053106 40 290 0.0 0.0 0.00 0.00 0.00 88 1015.0
20260508052559 40 290 0.0 0.0 0.00 0.00 0.00 88 1015.0
20260508052100 40 290 0.0 0.0 0.00 0.00 0.00 88 1015.1
20260508051558 40 290 0.0 0.0 0.00 0.00 0.00 88 1014.9
20260508051059 40 290 0.0 0.0 0.00 0.00 0.00 88 1015.0
20260508050559 40 290 0.0 0.0 0.00 0.00 0.00 88 1014.9
20260508045558 40 290 0.0 0.0 0.00 0.00 0.00 88 1015.0
20260508045101 40 290 0.0 0.0 0.00 0.00 0.00 87 1014.9
20260508044556 41 290 0.0 0.0 0.00 0.00 0.00 87 1014.9
20260508044058 41 290 0.0 0.0 0.00 0.00 0.00 88 1015.0
20260508043554 41 290 0.0 0.0 0.00 0.00 0.00 87 1014.9
20260508043054 41 290 0.0 0.0 0.00 0.00 0.00 87 1014.9
20260508042553 41 290 0.0 0.0 0.00 0.00 0.00 86 1014.9
20260508042056 41 290 0.0 0.0 0.00 0.00 0.00 86 1014.8
20260508041555 41 290 0.0 0.0 0.00 0.00 0.00 86 1014.9
20260508041052 42 290 0.0 0.0 0.00 0.00 0.00 86 1014.9
20260508040551 42 290 0.0 0.0 0.00 0.00 0.00 85 1014.9
20260508040049 42 290 0.0 0.0 0.00 0.00 0.00 84 1014.8
20260508035548 42 290 0.0 0.0 0.00 0.00 0.00 83 1014.7
20260508035047 43 290 0.0 0.0 0.00 0.00 0.00 83 1014.8
20260508034551 43 290 0.0 0.0 0.00 0.00 0.00 82 1014.8
20260508034047 43 290 0.0 0.0 0.00 0.00 0.00 82 1014.8
20260508033546 43 290 0.0 0.0 0.00 0.00 0.00 82 1014.8
20260508033046 43 290 0.0 0.0 0.00 0.00 0.00 81 1014.7
20260508032545 43 290 0.0 0.0 0.00 0.00 0.00 81 1014.8
20260508032047 43 290 0.0 0.0 0.00 0.00 0.00 82 1014.8
20260508031544 44 290 0.0 0.0 0.00 0.00 0.00 80 1014.8
20260508031043 44 290 0.0 0.0 0.00 0.00 0.00 79 1014.8
20260508030542 44 290 0.0 0.0 0.00 0.00 0.00 79 1014.7
20260508030053 44 290 0.0 0.0 0.00 0.00 0.00 79 1014.6
20260508025540 45 290 0.0 0.0 0.00 0.00 0.00 78 1014.7
20260508025040 45 290 0.0 0.0 0.00 0.00 0.00 78 1014.6
20260508024552 45 290 0.0 0.0 0.00 0.00 0.00 78 1014.5
20260508024039 45 290 0.0 0.0 0.00 0.00 0.00 78 1014.4
20260508023538 45 290 0.0 0.0 0.00 0.00 0.00 77 1014.3
20260508023038 45 290 0.0 0.0 0.00 0.00 0.00 76 1014.1
20260508022536 45 290 0.0 0.0 0.00 0.00 0.00 75 1014.2
20260508022036 46 290 0.0 0.0 0.00 0.00 0.00 75 1014.1
20260508021535 46 290 0.0 0.0 0.00 0.00 0.00 74 1014.0
20260508021037 46 290 0.0 0.0 0.00 0.00 0.00 73 1014.0
20260508020533 46 290 0.0 0.0 0.00 0.00 0.00 72 1013.9
20260508020033 47 290 0.0 0.0 0.00 0.00 0.00 71 1013.8
20260508015532 47 290 0.0 0.0 0.00 0.00 0.00 71 1013.7
20260508015031 47 290 0.0 0.0 0.00 0.00 0.00 71 1013.7
20260508014534 47 290 0.0 0.0 0.00 0.00 0.00 70 1013.6
20260508014030 48 290 0.0 0.0 0.00 0.00 0.00 70 1013.5
20260508013530 48 290 0.0 0.0 0.00 0.00 0.00 68 1013.5
20260508013027 48 290 0.0 0.0 0.00 0.00 0.00 68 1013.5
20260508012527 49 290 0.0 0.0 0.00 0.00 0.00 66 1013.3
20260508012028 49 290 0.0 0.0 0.00 0.00 0.00 66 1013.3
20260508011535 49 290 0.0 0.0 0.00 0.00 0.00 65 1013.2
20260508011026 50 290 0.0 0.0 0.00 0.00 0.00 64 1013.0
20260508010526 50 290 0.0 0.0 0.00 0.00 0.00 62 1012.9
20260508010031 51 290 0.0 0.0 0.00 0.00 0.00 62 1012.9
20260508005534 51 290 0.0 0.0 0.00 0.00 0.00 61 1012.9
20260508005026 52 290 0.0 0.0 0.00 0.00 0.00 60 1012.9
20260508004525 52 290 0.0 0.0 0.00 0.00 0.00 59 1012.8
20260508004025 53 290 0.0 0.0 0.00 0.00 0.00 59 1012.8
20260508003525 54 290 0.0 0.0 0.00 0.00 0.00 54 1012.7
20260508003034 56 290 0.0 0.0 0.00 0.00 0.00 47 1012.7
20260508002525 57 290 0.0 0.0 0.00 0.00 0.00 42 1012.6
20260508002024 58 290 0.0 0.9 0.00 0.00 0.00 42 1012.5
20260508001625 58 290 0.0 2.6 0.00 0.00 0.00 40 1012.5
20260508001024 58 288 0.0 2.6 0.00 0.00 0.00 39 1012.5
20260508000528 58 315 0.0 2.6 0.00 0.00 0.00 40 1012.5
20260508000024 59 306 0.0 2.6 0.00 0.00 0.00 40 1012.3
20260507235524 59 304 0.0 1.7 0.00 0.00 0.00 39 1012.3
20260507235027 59 306 0.0 3.5 0.00 0.00 0.00 38 1012.2
20260507234523 60 315 0.0 7.8 0.00 0.00 0.00 40 1012.2
20260507234023 60 308 0.0 7.8 0.00 0.00 0.00 38 1012.1
20260507233526 60 291 0.0 4.3 0.00 0.00 0.00 38 1012.1
20260507233023 61 326 0.9 5.2 0.00 0.00 0.00 37 1012.2
20260507232522 61 297 0.0 7.8 0.00 0.00 0.00 38 1012.0
20260507232023 61 318 1.7 9.6 0.00 0.00 0.00 38 1012.0
20260507231522 61 292 1.7 9.6 0.00 0.00 0.00 38 1012.1
20260507231022 62 298 0.0 7.8 0.00 0.00 0.00 37 1011.9
20260507230525 62 347 1.7 10.4 0.00 0.00 0.00 37 1012.0
20260507230022 62 311 3.5 10.4 0.00 0.00 0.00 37 1012.0
20260507225521 62 327 3.5 11.3 0.00 0.00 0.00 36 1011.8
20260507225022 63 350 3.5 9.6 0.00 0.00 0.00 37 1011.9
20260507224521 63 342 1.7 11.3 0.00 0.00 0.00 39 1011.7
20260507224020 64 330 4.3 11.3 0.00 0.00 0.00 36 1011.7
20260507223523 64 329 1.7 8.7 0.00 0.00 0.00 40 1011.5
20260507223022 64 329 2.6 8.7 0.00 0.00 0.00 37 1011.6
20260507222519 64 349 0.0 7.0 0.00 0.00 0.00 42 1011.7
20260507222019 64 307 0.0 7.8 0.00 0.00 0.00 37 1011.5
20260507221519 64 304 0.9 7.8 0.00 0.00 0.00 37 1011.6
20260507221019 64 345 0.0 7.0 0.00 0.00 0.00 38 1011.3
20260507220521 64 301 1.7 7.0 0.00 0.00 0.00 37 1011.5
20260507220019 65 239 0.9 7.0 0.00 0.00 0.00 38 1011.4
20260507215521 65 226 0.9 4.3 0.00 0.00 0.00 39 1011.2
20260507215018 65 304 0.0 5.2 0.00 0.00 0.00 38 1011.2
20260507214522 64 306 0.0 9.6 0.00 0.00 0.00 38 1011.1
20260507214017 64 309 0.9 7.0 0.00 0.00 0.00 40 1011.2
20260507213521 65 200 1.7 8.7 0.00 0.00 0.00 40 1011.1
20260507213026 64 333 0.9 8.7 0.00 0.00 0.00 42 1011.0
20260507212519 65 308 0.9 7.8 0.00 0.00 0.00 43 1011.2
20260507212017 64 341 0.0 7.8 0.00 0.00 0.00 46 1011.1
20260507211517 64 323 1.7 7.8 0.00 0.00 0.00 40 1011.1
20260507211016 63 355 0.0 4.3 0.00 0.00 0.00 40 1011.1
20260507210521 64 300 0.0 8.7 0.00 0.00 0.00 42 1010.9
20260507210017 64 342 0.9 11.3 0.00 0.00 0.00 42 1010.9
20260507205516 64 309 4.3 11.3 0.00 0.00 0.00 42 1010.8
20260507205015 65 326 1.7 7.8 0.00 0.00 0.00 41 1010.8
20260507204515 65 335 0.0 10.4 0.00 0.00 0.00 45 1010.7
20260507204015 64 313 3.5 10.4 0.00 0.00 0.00 39 1010.8
20260507203516 66 264 0.0 7.8 0.00 0.00 0.00 40 1010.6
20260507203016 65 265 0.9 7.8 0.00 0.00 0.00 47 1010.8
20260507202514 64 331 0.9 10.4 0.00 0.00 0.00 44 1010.7
20260507202014 66 318 1.7 8.7 0.00 0.00 0.00 44 1010.8
20260507201514 66 304 0.0 7.0 0.00 0.00 0.00 43 1010.7
20260507201015 65 296 0.9 10.4 0.00 0.00 0.00 45 1010.8
20260507200514 65 269 2.6 11.3 0.00 0.00 0.00 43 1011.0
20260507200027 65 313 2.6 11.3 0.00 0.00 0.00 47 1010.9
20260507195512 66 328 0.9 6.1 0.00 0.00 0.00 43 1010.8
20260507195011 66 323 0.0 5.2 0.00 0.00 0.00 48 1010.8
20260507194511 66 334 0.9 5.2 0.00 0.00 0.00 44 1010.9
20260507194009 65 333 0.9 8.7 0.00 0.00 0.00 45 1011.0
20260507193508 64 332 1.7 8.7 0.00 0.00 0.00 45 1011.0
20260507193009 63 360 1.7 7.0 0.00 0.00 0.00 46 1011.1
20260507192508 63 350 1.7 7.8 0.00 0.00 0.00 44 1011.1
20260507192007 63 355 1.7 7.8 0.00 0.00 0.00 44 1011.3
20260507191507 63 306 0.9 7.8 0.00 0.00 0.00 46 1011.4
20260507191006 64 345 1.7 9.6 0.00 0.00 0.00 47 1011.5
20260507190507 65 340 3.5 10.4 0.00 0.00 0.00 46 1011.6
20260507190017 65 281 2.6 10.4 0.00 0.00 0.00 47 1011.6
20260507185506 65 360 0.0 4.3 0.00 0.00 0.00 48 1011.5
20260507185005 64 333 0.9 5.2 0.00 0.00 0.00 46 1011.4
20260507184504 63 330 0.9 5.2 0.00 0.00 0.00 48 1011.5
20260507184004 64 263 0.9 5.2 0.00 0.00 0.00 47 1011.7
20260507183504 64 167 1.7 5.2 0.00 0.00 0.00 48 1011.7
20260507183011 64 33 0.0 4.3 0.00 0.00 0.00 48 1011.7
20260507182503 64 13 0.0 5.2 0.00 0.00 0.00 44 1011.7
20260507182002 64 34 0.0 7.8 0.00 0.00 0.00 61 1011.7
20260507181505 62 26 0.9 11.3 0.00 0.00 0.00 49 1011.8
20260507181003 63 329 1.7 11.3 0.00 0.00 0.00 49 1011.7
20260507180502 64 302 0.9 8.7 0.00 0.00 0.00 50 1011.6
20260507180002 63 276 1.7 10.4 0.00 0.00 0.00 52 1011.8
20260507175501 64 339 1.7 10.4 0.00 0.00 0.00 44 1011.8
20260507175001 64 188 0.0 9.6 0.00 0.00 0.00 53 1011.9
20260507174601 64 300 1.7 9.6 0.00 0.00 0.00 48 1012.0
20260507174059 64 315 0.0 5.2 0.00 0.00 0.00 50 1012.1
20260507173600 64 271 0.0 10.4 0.00 0.00 0.00 49 1012.0
20260507173100 62 333 4.3 11.3 0.00 0.00 0.00 50 1012.1
20260507172559 63 335 3.5 11.3 0.00 0.00 0.00 47 1012.1
20260507172058 63 314 0.9 7.0 0.00 0.00 0.00 49 1012.4
20260507171603 63 328 0.0 10.4 0.00 0.00 0.00 52 1012.3
20260507171057 62 322 1.7 10.4 0.00 0.00 0.00 57 1012.5
20260507170601 63 346 1.7 8.7 0.00 0.00 0.00 54 1012.6
20260507170056 64 313 0.0 7.8 0.00 0.00 0.00 55 1012.5
20260507165554 63 336 1.7 8.7 0.00 0.00 0.00 52 1012.4
20260507165057 62 309 1.7 8.7 0.00 0.00 0.00 52 1012.4
20260507164555 62 235 0.0 5.2 0.00 0.00 0.00 51 1012.5
20260507164053 60 313 0.9 5.2 0.00 0.00 0.00 53 1012.6
20260507163556 61 331 0.9 8.7 0.00 0.00 0.00 51 1012.6
20260507163052 62 338 0.9 8.7 0.00 0.00 0.00 56 1012.6
20260507162552 61 342 0.0 7.8 0.00 0.00 0.00 55 1012.6
20260507162056 62 346 0.9 4.3 0.00 0.00 0.00 53 1012.7
20260507161552 62 5 0.0 7.0 0.00 0.00 0.00 51 1012.8
20260507161052 62 5 1.7 7.0 0.00 0.00 0.00 50 1012.8
20260507160552 61 167 0.9 3.5 0.00 0.00 0.00 50 1012.8
20260507160057 60 329 0.0 3.5 0.00 0.00 0.00 51 1012.9
20260507155549 61 22 0.0 3.5 0.00 0.00 0.00 52 1012.9
20260507155048 60 315 0.9 3.5 0.00 0.00 0.00 51 1013.0
20260507154547 59 330 0.0 2.6 0.00 0.00 0.00 55 1013.1
20260507154047 58 319 0.0 8.7 0.00 0.00 0.00 56 1013.0
20260507153549 59 307 1.7 8.7 0.00 0.00 0.00 56 1013.1
20260507153051 60 329 0.9 7.8 0.00 0.00 0.00 54 1013.0
20260507152548 60 329 0.9 7.8 0.00 0.00 0.00 58 1013.0
20260507152045 60 333 0.0 3.5 0.00 0.00 0.00 53 1012.9
20260507151545 60 348 0.0 3.5 0.00 0.00 0.00 56 1013.0
20260507151045 60 328 0.0 9.6 0.00 0.00 0.00 52 1013.0
20260507150543 60 323 2.6 9.6 0.00 0.00 0.00 52 1013.0
20260507150041 60 360 3.5 7.8 0.00 0.00 0.00 52 1013.0
20260507145539 60 344 1.7 5.2 0.00 0.02 0.00 54 1013.1
20260507145037 59 348 0.9 5.2 0.00 0.02 0.00 53 1013.2
20260507144536 60 68 0.0 2.6 0.00 0.02 0.00 55 1013.0
20260507144035 60 275 0.9 7.8 0.00 0.02 0.00 57 1013.1
20260507143533 59 329 1.7 7.8 0.00 0.02 0.00 53 1013.2
20260507143032 60 329 0.9 5.2 0.00 0.02 0.00 60 1013.1
20260507142531 59 15 0.0 5.2 0.00 0.02 0.00 55 1013.1
20260507142029 59 86 0.9 5.2 0.00 0.02 0.00 57 1013.1
20260507141528 59 5 0.0 7.0 0.00 0.02 0.00 56 1013.3
20260507141030 59 11 1.7 7.0 0.00 0.02 0.00 59 1013.2
20260507140524 58 36 0.0 5.2 0.00 0.02 0.00 57 1013.5
20260507140024 58 340 0.9 7.8 0.00 0.03 0.00 56 1013.5
20260507135522 58 345 1.7 7.8 0.00 0.03 0.00 57 1013.6
20260507135022 58 320 0.0 5.2 0.00 0.03 0.00 60 1013.5
20260507134522 58 330 0.9 4.3 0.00 0.03 0.00 60 1013.6
20260507134019 57 311 0.0 2.6 0.00 0.03 0.00 64 1013.7
20260507133519 58 319 0.0 2.6 0.00 0.03 0.00 68 1013.9
20260507133018 57 320 0.0 2.6 0.00 0.03 0.00 63 1013.9
20260507132516 57 319 0.0 0.0 0.00 0.03 0.00 68 1013.9
20260507132015 56 319 0.0 0.0 0.00 0.03 0.00 66 1013.8